Time,TemperatureF,DewpointF,PressureIn,WindDirection,WindDirectionDegrees,WindSpeedMPH,WindSpeedGustMPH,Humidity,HourlyPrecipIn,Conditions,Clouds,dailyrainin,SoftwareType,DateUTC
2013-01-17 00:03:00,33.4,20.2,30.30,SW,218,0.0,0.0,58,0.00,,---,0.00,VWS V12.07,2013-01-17 07:03:00,
2013-01-17 00:08:00,33.4,20.3,30.30,SW,218,0.0,0.0,58,0.00,,---,0.00,VWS V12.07,2013-01-17 07:08:00,
2013-01-17 00:13:00,33.3,20.1,30.30,SW,218,0.0,0.0,58,0.00,,---,0.00,VWS V12.07,2013-01-17 07:13:00,
2013-01-17 00:18:00,33.3,20.2,30.30,SW,218,0.0,0.0,58,0.00,,---,0.00,VWS V12.07,2013-01-17 07:18:00,
2013-01-17 00:23:00,33.3,20.2,30.29,SW,218,0.0,0.0,58,0.00,,---,0.00,VWS V12.07,2013-01-17 07:23:00,
2013-01-17 00:28:00,33.2,20.3,30.30,SW,218,0.0,0.0,59,0.00,,---,0.00,VWS V12.07,2013-01-17 07:28:00,
2013-01-17 00:30:00,33.2,20.2,30.30,SW,218,0.0,0.0,58,0.00,,---,0.00,VWS V12.07,2013-01-17 07:30:00,
2013-01-17 00:33:00,33.0,20.0,30.30,SW,218,0.0,0.0,58,0.00,,---,0.00,VWS V12.07,2013-01-17 07:33:00,
2013-01-17 00:38:00,32.9,20.2,30.30,SW,218,0.0,0.0,59,0.00,,---,0.00,VWS V12.07,2013-01-17 07:38:00,
2013-01-17 00:43:00,32.6,20.1,30.30,SW,218,0.0,0.0,60,0.00,,---,0.00,VWS V12.07,2013-01-17 07:43:00,
2013-01-17 00:48:00,32.4,20.1,30.30,SW,218,0.0,0.0,60,0.00,,---,0.00,VWS V12.07,2013-01-17 07:48:00,
2013-01-17 00:53:00,32.2,20.1,30.29,SW,218,0.0,0.0,60,0.00,,---,0.00,VWS V12.07,2013-01-17 07:53:00,
2013-01-17 00:58:00,31.9,19.9,30.30,SW,218,0.0,0.0,61,0.00,,---,0.00,VWS V12.07,2013-01-17 07:58:00,
2013-01-17 01:00:00,32.0,19.9,30.29,SW,218,0.0,0.0,61,0.00,,---,0.00,VWS V12.07,2013-01-17 08:00:00,
2013-01-17 01:03:00,31.6,19.8,30.30,SW,218,0.0,0.0,61,0.00,,---,0.00,VWS V12.07,2013-01-17 08:03:00,
2013-01-17 01:08:00,31.6,20.0,30.30,SW,218,0.0,0.0,62,0.00,,---,0.00,VWS V12.07,2013-01-17 08:08:00,
2013-01-17 01:13:00,31.6,19.9,30.29,SW,218,0.0,0.0,62,0.00,,---,0.00,VWS V12.07,2013-01-17 08:13:00,
2013-01-17 01:18:00,31.4,19.8,30.29,SW,218,0.0,0.0,62,0.00,,---,0.00,VWS V12.07,2013-01-17 08:18:00,
2013-01-17 01:23:00,31.3,19.8,30.30,SW,218,0.0,0.0,62,0.00,,---,0.00,VWS V12.07,2013-01-17 08:23:00,
2013-01-17 01:28:00,31.2,19.7,30.29,SW,218,0.0,0.0,62,0.00,,---,0.00,VWS V12.07,2013-01-17 08:28:00,
2013-01-17 01:30:00,31.2,19.7,30.29,SW,218,0.0,0.0,62,0.00,,---,0.00,VWS V12.07,2013-01-17 08:30:00,
2013-01-17 01:33:00,31.2,19.7,30.29,SW,218,0.0,0.0,62,0.00,,---,0.00,VWS V12.07,2013-01-17 08:33:00,
2013-01-17 01:38:00,31.2,19.7,30.30,SW,218,0.0,0.0,62,0.00,,---,0.00,VWS V12.07,2013-01-17 08:38:00,
2013-01-17 01:43:00,31.1,19.6,30.30,SW,218,0.0,0.0,62,0.00,,---,0.00,VWS V12.07,2013-01-17 08:43:00,
2013-01-17 01:48:00,31.1,19.6,30.29,SW,218,0.0,0.0,62,0.00,,---,0.00,VWS V12.07,2013-01-17 08:48:00,
2013-01-17 01:53:00,31.3,19.8,30.29,SW,218,0.0,0.0,62,0.00,,---,0.00,VWS V12.07,2013-01-17 08:53:00,
2013-01-17 01:58:00,31.5,20.0,30.30,SW,218,0.0,0.0,62,0.00,,---,0.00,VWS V12.07,2013-01-17 08:58:00,
2013-01-17 02:00:00,31.4,19.9,30.30,SW,218,0.0,0.0,62,0.00,,---,0.00,VWS V12.07,2013-01-17 09:00:00,
2013-01-17 02:03:00,31.4,19.9,30.30,SW,218,0.0,0.0,62,0.00,,---,0.00,VWS V12.07,2013-01-17 09:03:00,
2013-01-17 02:08:00,31.2,19.8,30.30,SW,218,0.0,0.0,62,0.00,,---,0.00,VWS V12.07,2013-01-17 09:08:00,
2013-01-17 02:13:00,31.0,19.8,30.30,SW,218,0.0,0.0,63,0.00,,---,0.00,VWS V12.07,2013-01-17 09:13:00,
2013-01-17 02:18:00,30.7,19.6,30.30,SW,218,0.0,0.0,63,0.00,,---,0.00,VWS V12.07,2013-01-17 09:18:00,
2013-01-17 02:23:00,30.6,19.6,30.30,SW,218,0.0,0.0,63,0.00,,---,0.00,VWS V12.07,2013-01-17 09:23:00,
2013-01-17 02:28:00,30.3,19.4,30.30,SW,218,0.0,0.0,63,0.00,,---,0.00,VWS V12.07,2013-01-17 09:28:00,
2013-01-17 02:30:00,30.4,19.4,30.30,SW,218,0.0,0.0,63,0.00,,---,0.00,VWS V12.07,2013-01-17 09:30:00,
2013-01-17 02:33:00,30.2,19.5,30.30,SW,218,0.0,0.0,64,0.00,,---,0.00,VWS V12.07,2013-01-17 09:33:00,
2013-01-17 02:38:00,30.0,19.4,30.30,SW,218,0.0,0.0,64,0.00,,---,0.00,VWS V12.07,2013-01-17 09:38:00,
2013-01-17 02:43:00,29.9,19.3,30.30,SW,218,0.0,0.0,64,0.00,,---,0.00,VWS V12.07,2013-01-17 09:43:00,
2013-01-17 02:48:00,29.9,19.3,30.30,SW,218,0.0,0.0,64,0.00,,---,0.00,VWS V12.07,2013-01-17 09:48:00,
2013-01-17 02:53:00,29.9,19.4,30.29,SW,218,0.0,0.0,64,0.00,,---,0.00,VWS V12.07,2013-01-17 09:53:00,
2013-01-17 02:58:00,30.0,19.5,30.29,SW,218,0.0,0.0,64,0.00,,---,0.00,VWS V12.07,2013-01-17 09:58:00,
2013-01-17 03:00:00,30.0,19.5,30.29,SW,218,0.0,0.0,64,0.00,,---,0.00,VWS V12.07,2013-01-17 10:00:00,
2013-01-17 03:03:00,30.2,19.6,30.29,SW,218,0.0,0.0,64,0.00,,---,0.00,VWS V12.07,2013-01-17 10:03:00,
2013-01-17 03:08:00,30.3,19.6,30.29,SW,218,0.0,0.0,64,0.00,,---,0.00,VWS V12.07,2013-01-17 10:08:00,
2013-01-17 03:13:00,30.1,19.5,30.29,SW,218,0.0,0.0,64,0.00,,---,0.00,VWS V12.07,2013-01-17 10:13:00,
2013-01-17 03:18:00,29.5,19.1,30.29,SW,218,0.0,0.0,65,0.00,,---,0.00,VWS V12.07,2013-01-17 10:18:00,
2013-01-17 03:23:00,29.0,18.9,30.29,SW,218,0.0,0.0,66,0.00,,---,0.00,VWS V12.07,2013-01-17 10:23:00,
2013-01-17 03:28:00,28.5,18.5,30.29,SW,218,0.0,0.0,66,0.00,,---,0.00,VWS V12.07,2013-01-17 10:28:00,
2013-01-17 03:30:00,28.8,18.8,30.29,SW,218,0.0,0.0,66,0.00,,---,0.00,VWS V12.07,2013-01-17 10:30:00,
2013-01-17 03:33:00,28.2,18.5,30.29,SW,218,0.0,0.0,66,0.00,,---,0.00,VWS V12.07,2013-01-17 10:33:00,
2013-01-17 03:38:00,28.1,18.6,30.29,SW,218,0.0,0.0,67,0.00,,---,0.00,VWS V12.07,2013-01-17 10:38:00,
2013-01-17 03:43:00,28.2,18.6,30.28,SW,218,0.0,0.0,67,0.00,,---,0.00,VWS V12.07,2013-01-17 10:43:00,
2013-01-17 03:48:00,28.6,18.9,30.28,SW,218,0.0,0.0,66,0.00,,---,0.00,VWS V12.07,2013-01-17 10:48:00,
2013-01-17 03:53:00,28.6,18.8,30.28,SW,218,0.0,0.0,66,0.00,,---,0.00,VWS V12.07,2013-01-17 10:53:00,
2013-01-17 03:58:00,29.2,19.3,30.28,WNW,302,0.0,4.6,66,0.00,,---,0.00,VWS V12.07,2013-01-17 10:58:00,
2013-01-17 04:00:00,28.8,19.0,30.28,NNW,330,2.8,4.3,66,0.00,,---,0.00,VWS V12.07,2013-01-17 11:00:00,
2013-01-17 04:03:00,29.7,19.4,30.28,WNW,302,0.0,4.6,65,0.00,,---,0.00,VWS V12.07,2013-01-17 11:03:00,
2013-01-17 04:08:00,30.1,19.6,30.28,WNW,302,0.0,4.6,65,0.00,,---,0.00,VWS V12.07,2013-01-17 11:08:00,
2013-01-17 04:13:00,30.3,19.6,30.28,WNW,302,0.0,4.6,64,0.00,,---,0.00,VWS V12.07,2013-01-17 11:13:00,
2013-01-17 04:18:00,30.4,19.7,30.28,WNW,302,0.0,4.6,64,0.00,,---,0.00,VWS V12.07,2013-01-17 11:18:00,
2013-01-17 04:23:00,30.9,20.0,30.27,WNW,302,0.0,4.6,63,0.00,,---,0.00,VWS V12.07,2013-01-17 11:23:00,
2013-01-17 04:28:00,31.2,20.0,30.27,WNW,302,0.0,4.6,63,0.00,,---,0.00,VWS V12.07,2013-01-17 11:28:00,
2013-01-17 04:30:00,31.1,20.1,30.27,WNW,302,0.0,4.6,63,0.00,,---,0.00,VWS V12.07,2013-01-17 11:30:00,
2013-01-17 04:33:00,31.4,20.1,30.27,WNW,302,0.0,4.6,62,0.00,,---,0.00,VWS V12.07,2013-01-17 11:33:00,
2013-01-17 04:38:00,31.4,20.0,30.27,WNW,302,0.0,4.6,62,0.00,,---,0.00,VWS V12.07,2013-01-17 11:38:00,
2013-01-17 04:43:00,31.4,20.1,30.27,WNW,302,0.0,4.6,62,0.00,,---,0.00,VWS V12.07,2013-01-17 11:43:00,
2013-01-17 04:48:00,31.2,20.0,30.27,WNW,302,0.0,4.6,63,0.00,,---,0.00,VWS V12.07,2013-01-17 11:48:00,
2013-01-17 04:53:00,30.9,19.8,30.27,WNW,302,0.0,4.6,63,0.00,,---,0.00,VWS V12.07,2013-01-17 11:53:00,
2013-01-17 04:58:00,30.7,19.7,30.28,WNW,302,0.0,0.0,63,0.00,,---,0.00,VWS V12.07,2013-01-17 11:58:00,
2013-01-17 05:00:00,30.9,19.8,30.28,WNW,302,0.0,0.0,63,0.00,,---,0.00,VWS V12.07,2013-01-17 12:00:00,
2013-01-17 05:03:00,30.2,19.5,30.27,WNW,302,0.0,0.0,64,0.00,,---,0.00,VWS V12.07,2013-01-17 12:03:00,
2013-01-17 05:08:00,30.2,19.7,30.28,WNW,302,0.0,0.0,64,0.00,,---,0.00,VWS V12.07,2013-01-17 12:08:00,
2013-01-17 05:13:00,30.5,19.8,30.27,WNW,302,0.0,0.0,64,0.00,,---,0.00,VWS V12.07,2013-01-17 12:13:00,
2013-01-17 05:18:00,30.9,20.0,30.27,WNW,302,0.0,0.0,64,0.00,,---,0.00,VWS V12.07,2013-01-17 12:18:00,
2013-01-17 05:23:00,31.0,20.0,30.27,WNW,302,0.0,0.0,63,0.00,,---,0.00,VWS V12.07,2013-01-17 12:23:00,
2013-01-17 05:28:00,31.2,20.2,30.27,WNW,302,0.0,0.0,63,0.00,,---,0.00,VWS V12.07,2013-01-17 12:28:00,
2013-01-17 05:30:00,31.1,20.1,30.27,WNW,302,0.0,0.0,63,0.00,,---,0.00,VWS V12.07,2013-01-17 12:30:00,
2013-01-17 05:33:00,31.3,20.2,30.27,WNW,302,0.0,0.0,63,0.00,,---,0.00,VWS V12.07,2013-01-17 12:33:00,
2013-01-17 05:38:00,31.4,20.2,30.27,WNW,302,0.0,0.0,63,0.00,,---,0.00,VWS V12.07,2013-01-17 12:38:00,
2013-01-17 05:43:00,31.4,20.2,30.27,NNW,343,0.0,4.3,63,0.00,,---,0.00,VWS V12.07,2013-01-17 12:43:00,
2013-01-17 05:48:00,31.4,20.1,30.27,NNW,343,0.0,4.3,63,0.00,,---,0.00,VWS V12.07,2013-01-17 12:48:00,
2013-01-17 05:53:00,31.5,20.2,30.27,NNW,343,0.0,4.3,62,0.00,,---,0.00,VWS V12.07,2013-01-17 12:53:00,
2013-01-17 05:58:00,31.4,20.1,30.28,NNW,343,0.0,4.3,62,0.00,,---,0.00,VWS V12.07,2013-01-17 12:58:00,
2013-01-17 06:00:00,31.4,20.0,30.27,NNW,343,0.0,4.3,62,0.00,,---,0.00,VWS V12.07,2013-01-17 13:00:00,
2013-01-17 06:03:00,31.2,19.8,30.28,NNW,343,0.0,4.3,62,0.00,,---,0.00,VWS V12.07,2013-01-17 13:03:00,
2013-01-17 06:08:00,30.8,19.6,30.28,NNW,343,0.0,4.3,63,0.00,,---,0.00,VWS V12.07,2013-01-17 13:08:00,
2013-01-17 06:13:00,30.2,19.2,30.28,NNW,343,0.0,4.3,63,0.00,,---,0.00,VWS V12.07,2013-01-17 13:13:00,
2013-01-17 06:18:00,29.4,18.9,30.28,NNW,343,0.0,4.3,64,0.00,,---,0.00,VWS V12.07,2013-01-17 13:18:00,
2013-01-17 06:23:00,28.9,18.8,30.28,NNW,343,0.0,4.3,66,0.00,,---,0.00,VWS V12.07,2013-01-17 13:23:00,
2013-01-17 06:28:00,28.4,18.6,30.28,NNW,343,0.0,4.3,66,0.00,,---,0.00,VWS V12.07,2013-01-17 13:28:00,
2013-01-17 06:30:00,28.6,18.7,30.28,NNW,343,0.0,0.0,66,0.00,,---,0.00,VWS V12.07,2013-01-17 13:30:00,
2013-01-17 06:33:00,28.1,18.5,30.28,NNW,343,0.0,4.3,67,0.00,,---,0.00,VWS V12.07,2013-01-17 13:33:00,
2013-01-17 06:38:00,27.8,18.4,30.28,NNW,343,0.0,4.3,67,0.00,,---,0.00,VWS V12.07,2013-01-17 13:38:00,
2013-01-17 06:43:00,27.7,18.5,30.28,NNW,343,0.0,4.3,68,0.00,,---,0.00,VWS V12.07,2013-01-17 13:43:00,
2013-01-17 06:48:00,27.6,18.4,30.28,NNW,343,0.0,4.3,68,0.00,,---,0.00,VWS V12.07,2013-01-17 13:48:00,
2013-01-17 06:53:00,27.5,18.4,30.28,NNW,343,0.0,4.3,68,0.00,,---,0.00,VWS V12.07,2013-01-17 13:53:00,
2013-01-17 06:58:00,27.4,18.5,30.28,NNW,343,0.0,0.0,69,0.00,,---,0.00,VWS V12.07,2013-01-17 13:58:00,
2013-01-17 07:00:00,27.5,18.5,30.28,NNW,343,0.0,0.0,68,0.00,,---,0.00,VWS V12.07,2013-01-17 14:00:00,
2013-01-17 07:03:00,27.1,18.4,30.28,NNW,343,0.0,0.0,69,0.00,,---,0.00,VWS V12.07,2013-01-17 14:03:00,
2013-01-17 07:08:00,27.1,18.4,30.28,NNW,343,0.0,0.0,69,0.00,,---,0.00,VWS V12.07,2013-01-17 14:08:00,
2013-01-17 07:13:00,27.2,18.5,30.29,NNW,343,0.0,0.0,69,0.00,,---,0.00,VWS V12.07,2013-01-17 14:13:00,
2013-01-17 07:18:00,27.3,18.6,30.29,NNW,343,0.0,0.0,69,0.00,,---,0.00,VWS V12.07,2013-01-17 14:18:00,
2013-01-17 07:23:00,27.3,18.7,30.29,NNW,343,0.0,0.0,70,0.00,,---,0.00,VWS V12.07,2013-01-17 14:23:00,
2013-01-17 07:28:00,27.2,18.6,30.29,NNW,343,0.0,0.0,70,0.00,,---,0.00,VWS V12.07,2013-01-17 14:28:00,
2013-01-17 07:30:00,27.2,18.5,30.29,NNW,343,0.0,0.0,69,0.00,,---,0.00,VWS V12.07,2013-01-17 14:30:00,
2013-01-17 07:33:00,27.2,18.6,30.29,NNW,343,0.0,0.0,70,0.00,,---,0.00,VWS V12.07,2013-01-17 14:33:00,
2013-01-17 07:38:00,27.3,18.7,30.29,NNW,343,0.0,0.0,70,0.00,,---,0.00,VWS V12.07,2013-01-17 14:38:00,
2013-01-17 07:43:00,27.3,18.7,30.29,NNW,343,0.0,0.0,70,0.00,,---,0.00,VWS V12.07,2013-01-17 14:43:00,
2013-01-17 07:48:00,27.4,18.8,30.29,NNW,343,0.0,0.0,70,0.00,,---,0.00,VWS V12.07,2013-01-17 14:48:00,
2013-01-17 07:53:00,27.6,18.9,30.29,NNW,343,0.0,0.0,69,0.00,,---,0.00,VWS V12.07,2013-01-17 14:53:00,
2013-01-17 07:58:00,27.9,19.1,30.30,NNW,343,0.0,0.0,69,0.00,,---,0.00,VWS V12.07,2013-01-17 14:58:00,
2013-01-17 08:00:00,27.8,19.0,30.29,NNW,343,0.0,0.0,69,0.00,,---,0.00,VWS V12.07,2013-01-17 15:00:00,
2013-01-17 08:03:00,28.2,19.3,30.30,NNW,343,0.0,0.0,69,0.00,,---,0.00,VWS V12.07,2013-01-17 15:03:00,
2013-01-17 08:08:00,28.4,19.4,30.30,NNW,343,0.0,0.0,69,0.00,,---,0.00,VWS V12.07,2013-01-17 15:08:00,
2013-01-17 08:13:00,28.8,19.7,30.31,NNW,343,0.0,0.0,68,0.00,,---,0.00,VWS V12.07,2013-01-17 15:13:00,
2013-01-17 08:18:00,29.0,19.7,30.31,NNW,343,0.0,0.0,68,0.00,,---,0.00,VWS V12.07,2013-01-17 15:18:00,
2013-01-17 08:23:00,29.7,20.2,30.31,NNW,343,0.0,0.0,67,0.00,,---,0.00,VWS V12.07,2013-01-17 15:23:00,
2013-01-17 08:28:00,30.2,20.3,30.31,NNW,343,0.0,0.0,66,0.00,,---,0.00,VWS V12.07,2013-01-17 15:28:00,
2013-01-17 08:30:00,29.9,20.2,30.31,NNW,343,0.0,0.0,67,0.00,,---,0.00,VWS V12.07,2013-01-17 15:30:00,
2013-01-17 08:33:00,30.9,20.6,30.31,NNW,343,0.0,0.0,65,0.00,,---,0.00,VWS V12.07,2013-01-17 15:33:00,
2013-01-17 08:38:00,31.7,21.0,30.31,NNW,343,0.0,0.0,64,0.00,,---,0.00,VWS V12.07,2013-01-17 15:38:00,
2013-01-17 08:43:00,32.2,21.1,30.31,NNW,343,0.0,0.0,63,0.00,,---,0.00,VWS V12.07,2013-01-17 15:43:00,
2013-01-17 08:48:00,32.7,21.3,30.32,NNW,343,0.0,0.0,62,0.00,,---,0.00,VWS V12.07,2013-01-17 15:48:00,
2013-01-17 08:53:00,33.3,21.4,30.32,NNW,343,0.0,0.0,61,0.00,,---,0.00,VWS V12.07,2013-01-17 15:53:00,
2013-01-17 08:58:00,33.8,21.6,30.32,NNW,343,0.0,0.0,60,0.00,,---,0.00,VWS V12.07,2013-01-17 15:58:00,
2013-01-17 09:00:00,33.5,21.5,30.32,NNW,343,0.0,0.0,61,0.00,,---,0.00,VWS V12.07,2013-01-17 16:00:00,
2013-01-17 09:03:00,34.3,21.8,30.32,NNW,343,0.0,0.0,60,0.00,,---,0.00,VWS V12.07,2013-01-17 16:03:00,
2013-01-17 09:08:00,34.9,22.0,30.32,NNW,343,0.0,0.0,59,0.00,,---,0.00,VWS V12.07,2013-01-17 16:08:00,
2013-01-17 09:13:00,35.3,22.1,30.32,NNW,343,0.0,0.0,58,0.00,,---,0.00,VWS V12.07,2013-01-17 16:13:00,
2013-01-17 09:18:00,35.8,22.4,30.33,NNW,343,0.0,0.0,58,0.00,,---,0.00,VWS V12.07,2013-01-17 16:18:00,
2013-01-17 09:23:00,36.1,22.6,30.33,NNW,343,0.0,0.0,58,0.00,,---,0.00,VWS V12.07,2013-01-17 16:23:00,
2013-01-17 09:28:00,36.5,22.8,30.33,NNW,343,0.0,0.0,57,0.00,,---,0.00,VWS V12.07,2013-01-17 16:28:00,
2013-01-17 09:30:00,36.3,22.7,30.33,NNW,343,0.0,0.0,57,0.00,,---,0.00,VWS V12.07,2013-01-17 16:30:00,
2013-01-17 09:33:00,36.9,23.0,30.33,NNW,343,0.0,0.0,57,0.00,,---,0.00,VWS V12.07,2013-01-17 16:33:00,
2013-01-17 09:38:00,37.3,23.1,30.34,NNW,343,0.0,0.0,56,0.00,,---,0.00,VWS V12.07,2013-01-17 16:38:00,
2013-01-17 09:43:00,37.7,23.3,30.33,North,4,0.0,3.3,56,0.00,,---,0.00,VWS V12.07,2013-01-17 16:43:00,
2013-01-17 09:48:00,38.0,23.3,30.33,North,4,0.0,3.3,55,0.00,,---,0.00,VWS V12.07,2013-01-17 16:48:00,
2013-01-17 09:53:00,38.3,23.2,30.34,North,4,0.0,3.3,54,0.00,,---,0.00,VWS V12.07,2013-01-17 16:53:00,
2013-01-17 09:58:00,38.6,23.3,30.34,North,4,0.0,3.3,54,0.00,,---,0.00,VWS V12.07,2013-01-17 16:58:00,
2013-01-17 10:00:00,38.4,23.2,30.34,North,4,0.0,3.3,54,0.00,,---,0.00,VWS V12.07,2013-01-17 17:00:00,
2013-01-17 10:03:00,39.1,23.4,30.34,North,4,0.0,3.3,53,0.00,,---,0.00,VWS V12.07,2013-01-17 17:03:00,
2013-01-17 10:08:00,39.5,23.5,30.34,NE,41,0.0,3.3,52,0.00,,---,0.00,VWS V12.07,2013-01-17 17:08:00,
2013-01-17 10:13:00,39.9,23.6,30.34,NE,41,0.0,3.3,52,0.00,,---,0.00,VWS V12.07,2013-01-17 17:13:00,
2013-01-17 10:18:00,40.4,23.9,30.34,NE,41,0.0,3.3,51,0.00,,---,0.00,VWS V12.07,2013-01-17 17:18:00,
2013-01-17 10:23:00,40.9,24.1,30.34,NE,41,0.0,3.3,51,0.00,,---,0.00,VWS V12.07,2013-01-17 17:23:00,
2013-01-17 10:28:00,41.4,24.2,30.34,NE,41,0.0,3.3,50,0.00,,---,0.00,VWS V12.07,2013-01-17 17:28:00,
2013-01-17 10:30:00,41.1,24.1,30.34,NE,41,0.0,3.2,50,0.00,,---,0.00,VWS V12.07,2013-01-17 17:30:00,
2013-01-17 10:33:00,42.0,24.2,30.34,NE,41,0.0,3.3,49,0.00,,---,0.00,VWS V12.07,2013-01-17 17:33:00,
2013-01-17 10:38:00,42.5,24.3,30.33,NE,41,0.0,3.3,48,0.00,,---,0.00,VWS V12.07,2013-01-17 17:38:00,
2013-01-17 10:43:00,43.0,24.3,30.33,NE,41,0.0,3.3,47,0.00,,---,0.00,VWS V12.07,2013-01-17 17:43:00,
2013-01-17 10:48:00,43.4,24.3,30.33,NE,41,0.0,3.3,47,0.00,,---,0.00,VWS V12.07,2013-01-17 17:48:00,
2013-01-17 10:53:00,44.0,24.5,30.33,NE,41,0.0,3.3,46,0.00,,---,0.00,VWS V12.07,2013-01-17 17:53:00,
2013-01-17 10:58:00,44.6,24.5,30.33,NE,41,0.0,0.0,45,0.00,,---,0.00,VWS V12.07,2013-01-17 17:58:00,
2013-01-17 11:00:00,44.3,24.5,30.33,NE,41,0.0,0.0,45,0.00,,---,0.00,VWS V12.07,2013-01-17 18:00:00,
2013-01-17 11:03:00,45.2,24.5,30.32,NE,41,0.0,0.0,44,0.00,,---,0.00,VWS V12.07,2013-01-17 18:03:00,
2013-01-17 11:08:00,45.8,24.6,30.32,NE,41,0.0,0.0,43,0.00,,---,0.00,VWS V12.07,2013-01-17 18:08:00,
2013-01-17 11:13:00,46.6,24.8,30.32,NE,41,0.0,0.0,42,0.00,,---,0.00,VWS V12.07,2013-01-17 18:13:00,
2013-01-17 11:18:00,47.4,24.8,30.32,NE,41,0.0,0.0,41,0.00,,---,0.00,VWS V12.07,2013-01-17 18:18:00,
2013-01-17 11:23:00,48.3,24.9,30.31,NE,37,0.0,3.2,40,0.00,,---,0.00,VWS V12.07,2013-01-17 18:23:00,
2013-01-17 11:28:00,49.0,25.0,30.31,NE,37,0.0,3.2,39,0.00,,---,0.00,VWS V12.07,2013-01-17 18:28:00,
2013-01-17 11:30:00,48.5,25.0,30.31,NE,37,0.0,3.2,40,0.00,,---,0.00,VWS V12.07,2013-01-17 18:30:00,
2013-01-17 11:33:00,49.8,25.0,30.31,NE,37,0.0,3.2,38,0.00,,---,0.00,VWS V12.07,2013-01-17 18:33:00,
2013-01-17 11:38:00,50.6,25.3,30.31,NE,37,0.0,3.2,37,0.00,,---,0.00,VWS V12.07,2013-01-17 18:38:00,
2013-01-17 11:43:00,51.5,25.1,30.31,NE,37,0.0,3.2,36,0.00,,---,0.00,VWS V12.07,2013-01-17 18:43:00,
2013-01-17 11:48:00,52.3,25.4,30.30,NE,37,0.0,3.2,35,0.00,,---,0.00,VWS V12.07,2013-01-17 18:48:00,
2013-01-17 11:53:00,53.5,25.6,30.29,NE,37,0.0,3.2,34,0.00,,---,0.00,VWS V12.07,2013-01-17 18:53:00,
2013-01-17 11:58:00,54.5,25.3,30.29,NE,37,0.0,0.0,32,0.00,,---,0.00,VWS V12.07,2013-01-17 18:58:00,
2013-01-17 12:00:00,54.0,25.6,30.29,NE,37,0.0,0.0,33,0.00,,---,0.00,VWS V12.07,2013-01-17 19:00:00,
2013-01-17 12:03:00,55.0,25.6,30.28,NE,37,0.0,2.9,32,0.00,,---,0.00,VWS V12.07,2013-01-17 19:03:00,
2013-01-17 12:08:00,55.4,25.2,30.28,NE,37,0.0,2.9,31,0.00,,---,0.00,VWS V12.07,2013-01-17 19:08:00,
2013-01-17 12:13:00,55.8,24.9,30.27,NE,37,0.0,2.9,30,0.00,,---,0.00,VWS V12.07,2013-01-17 19:13:00,
2013-01-17 12:18:00,56.1,25.4,30.27,NE,37,0.0,2.9,30,0.00,,---,0.00,VWS V12.07,2013-01-17 19:18:00,
2013-01-17 12:23:00,56.4,24.6,30.27,NE,55,0.0,3.4,29,0.00,,---,0.00,VWS V12.07,2013-01-17 19:23:00,
2013-01-17 12:28:00,56.5,24.6,30.26,NNW,347,0.0,4.7,29,0.00,,---,0.00,VWS V12.07,2013-01-17 19:28:00,
2013-01-17 12:30:00,56.3,24.6,30.26,NE,55,0.0,3.4,29,0.00,,---,0.00,VWS V12.07,2013-01-17 19:30:00,
2013-01-17 12:33:00,56.9,24.9,30.26,NW,316,0.0,4.7,29,0.00,,---,0.00,VWS V12.07,2013-01-17 19:33:00,
2013-01-17 12:38:00,57.5,24.8,30.26,NW,316,0.0,4.7,28,0.00,,---,0.00,VWS V12.07,2013-01-17 19:38:00,
2013-01-17 12:43:00,57.9,24.4,30.26,NW,316,0.0,4.7,27,0.00,,---,0.00,VWS V12.07,2013-01-17 19:43:00,
2013-01-17 12:48:00,58.3,24.4,30.25,NW,316,0.0,4.7,27,0.00,,---,0.00,VWS V12.07,2013-01-17 19:48:00,
2013-01-17 12:53:00,58.5,24.1,30.24,NW,316,0.0,4.7,26,0.00,,---,0.00,VWS V12.07,2013-01-17 19:53:00,
2013-01-17 12:58:00,58.8,25.1,30.24,NW,312,0.0,4.7,27,0.00,,---,0.00,VWS V12.07,2013-01-17 19:58:00,
2013-01-17 13:00:00,58.4,24.1,30.24,NW,312,0.0,4.7,26,0.00,,---,0.00,VWS V12.07,2013-01-17 20:00:00,
2013-01-17 13:03:00,59.1,24.3,30.24,NE,51,3.5,4.7,26,0.00,,---,0.00,VWS V12.07,2013-01-17 20:03:00,
2013-01-17 13:08:00,59.1,24.2,30.24,NE,42,0.0,4.7,26,0.00,,---,0.00,VWS V12.07,2013-01-17 20:08:00,
2013-01-17 13:13:00,59.1,24.3,30.23,NE,42,0.0,4.7,26,0.00,,---,0.00,VWS V12.07,2013-01-17 20:13:00,
2013-01-17 13:18:00,59.6,24.7,30.23,NE,42,0.0,4.7,26,0.00,,---,0.00,VWS V12.07,2013-01-17 20:18:00,
2013-01-17 13:23:00,59.4,23.9,30.23,East,80,0.0,5.1,25,0.00,,---,0.00,VWS V12.07,2013-01-17 20:23:00,
2013-01-17 13:28:00,59.0,24.2,30.22,East,80,0.0,5.1,26,0.00,,---,0.00,VWS V12.07,2013-01-17 20:28:00,
2013-01-17 13:30:00,59.1,23.9,30.22,East,80,0.0,5.1,26,0.00,,---,0.00,VWS V12.07,2013-01-17 20:30:00,
2013-01-17 13:33:00,59.4,24.5,30.22,SSE,163,0.0,5.7,26,0.00,,---,0.00,VWS V12.07,2013-01-17 20:33:00,
2013-01-17 13:38:00,60.2,24.2,30.22,SW,235,0.0,5.7,25,0.00,,---,0.00,VWS V12.07,2013-01-17 20:38:00,
2013-01-17 13:43:00,60.8,24.5,30.21,SW,235,0.0,5.7,25,0.00,,---,0.00,VWS V12.07,2013-01-17 20:43:00,
2013-01-17 13:48:00,61.5,24.8,30.21,South,191,0.0,5.7,24,0.00,,---,0.00,VWS V12.07,2013-01-17 20:48:00,
2013-01-17 13:53:00,61.4,24.0,30.20,West,281,0.0,5.7,24,0.00,,---,0.00,VWS V12.07,2013-01-17 20:53:00,
2013-01-17 13:58:00,61.5,24.6,30.20,West,281,0.0,5.7,24,0.00,,---,0.00,VWS V12.07,2013-01-17 20:58:00,
2013-01-17 14:00:00,61.4,24.5,30.20,West,281,0.0,5.7,24,0.00,,---,0.00,VWS V12.07,2013-01-17 21:00:00,
2013-01-17 14:03:00,61.5,24.1,30.20,West,281,0.0,5.7,24,0.00,,---,0.00,VWS V12.07,2013-01-17 21:03:00,
2013-01-17 14:08:00,61.4,23.9,30.20,NNW,336,0.0,5.7,24,0.00,,---,0.00,VWS V12.07,2013-01-17 21:08:00,
2013-01-17 14:13:00,61.4,24.1,30.20,NW,305,0.0,5.7,24,0.00,,---,0.00,VWS V12.07,2013-01-17 21:13:00,
2013-01-17 14:18:00,61.9,24.1,30.20,North,353,3.5,5.7,23,0.00,,---,0.00,VWS V12.07,2013-01-17 21:18:00,
2013-01-17 14:23:00,61.9,24.0,30.20,NE,39,3.1,5.7,23,0.00,,---,0.00,VWS V12.07,2013-01-17 21:23:00,
2013-01-17 14:28:00,61.5,23.6,30.20,NNE,14,0.0,8.6,23,0.00,,---,0.00,VWS V12.07,2013-01-17 21:28:00,
2013-01-17 14:30:00,61.8,23.7,30.20,NE,53,3.2,8.6,23,0.00,,---,0.00,VWS V12.07,2013-01-17 21:30:00,
2013-01-17 14:33:00,61.5,23.8,30.20,North,350,3.2,8.6,23,0.00,,---,0.00,VWS V12.07,2013-01-17 21:33:00,
2013-01-17 14:38:00,61.5,23.7,30.19,NE,34,0.0,8.6,23,0.00,,---,0.00,VWS V12.07,2013-01-17 21:38:00,
2013-01-17 14:43:00,61.8,23.9,30.19,NNE,14,0.0,8.6,23,0.00,,---,0.00,VWS V12.07,2013-01-17 21:43:00,
2013-01-17 14:48:00,62.4,23.8,30.19,NNE,31,0.0,8.6,23,0.00,,---,0.00,VWS V12.07,2013-01-17 21:48:00,
2013-01-17 14:53:00,62.5,24.3,30.19,NNE,31,0.0,8.6,23,0.00,,---,0.00,VWS V12.07,2013-01-17 21:53:00,
2013-01-17 14:58:00,62.6,23.7,30.19,ENE,76,0.0,6.1,22,0.00,,---,0.00,VWS V12.07,2013-01-17 21:58:00,
2013-01-17 15:00:00,62.7,23.9,30.19,NNE,31,0.0,6.1,22,0.00,,---,0.00,VWS V12.07,2013-01-17 22:00:00,
2013-01-17 15:03:00,62.4,23.6,30.19,ENE,76,0.0,6.1,22,0.00,,---,0.00,VWS V12.07,2013-01-17 22:03:00,
2013-01-17 15:08:00,62.7,23.7,30.18,NNE,18,0.0,6.1,22,0.00,,---,0.00,VWS V12.07,2013-01-17 22:08:00,
2013-01-17 15:13:00,62.7,23.5,30.18,NNE,18,0.0,6.1,22,0.00,,---,0.00,VWS V12.07,2013-01-17 22:13:00,
2013-01-17 15:18:00,62.8,23.7,30.18,NNE,18,0.0,6.1,22,0.00,,---,0.00,VWS V12.07,2013-01-17 22:18:00,
2013-01-17 15:23:00,62.6,23.4,30.18,NNE,18,0.0,6.1,22,0.00,,---,0.00,VWS V12.07,2013-01-17 22:23:00,
2013-01-17 15:28:00,62.6,23.9,30.18,NNE,18,0.0,6.1,23,0.00,,---,0.00,VWS V12.07,2013-01-17 22:28:00,
2013-01-17 15:30:00,62.6,23.6,30.18,NNE,18,0.0,4.3,22,0.00,,---,0.00,VWS V12.07,2013-01-17 22:30:00,
2013-01-17 15:33:00,63.0,23.7,30.18,WSW,243,0.0,6.1,22,0.00,,---,0.00,VWS V12.07,2013-01-17 22:33:00,
2013-01-17 15:38:00,63.1,23.9,30.18,WSW,243,0.0,6.1,22,0.00,,---,0.00,VWS V12.07,2013-01-17 22:38:00,
2013-01-17 15:43:00,63.3,23.9,30.18,WSW,243,0.0,6.1,22,0.00,,---,0.00,VWS V12.07,2013-01-17 22:43:00,
2013-01-17 15:48:00,63.3,23.7,30.18,WSW,243,0.0,6.1,22,0.00,,---,0.00,VWS V12.07,2013-01-17 22:48:00,
2013-01-17 15:53:00,63.3,23.9,30.18,WSW,243,0.0,6.1,22,0.00,,---,0.00,VWS V12.07,2013-01-17 22:53:00,
2013-01-17 15:58:00,63.3,23.8,30.18,WSW,243,0.0,5.1,22,0.00,,---,0.00,VWS V12.07,2013-01-17 22:58:00,
2013-01-17 16:00:00,63.3,23.8,30.18,WSW,243,0.0,5.1,22,0.00,,---,0.00,VWS V12.07,2013-01-17 23:00:00,
2013-01-17 16:03:00,63.3,24.2,30.18,WSW,243,0.0,5.1,22,0.00,,---,0.00,VWS V12.07,2013-01-17 23:03:00,
2013-01-17 16:08:00,63.2,23.5,30.18,WSW,243,0.0,5.1,22,0.00,,---,0.00,VWS V12.07,2013-01-17 23:08:00,
2013-01-17 16:13:00,62.8,23.4,30.18,WSW,243,0.0,5.1,22,0.00,,---,0.00,VWS V12.07,2013-01-17 23:13:00,
2013-01-17 16:18:00,62.9,23.6,30.18,WSW,243,0.0,5.1,22,0.00,,---,0.00,VWS V12.07,2013-01-17 23:18:00,
2013-01-17 16:23:00,62.7,23.4,30.19,WSW,243,0.0,5.1,22,0.00,,---,0.00,VWS V12.07,2013-01-17 23:23:00,
2013-01-17 16:28:00,62.6,23.5,30.19,WSW,243,0.0,5.1,22,0.00,,---,0.00,VWS V12.07,2013-01-17 23:28:00,
2013-01-17 16:30:00,62.7,23.5,30.19,WSW,243,0.0,0.0,22,0.00,,---,0.00,VWS V12.07,2013-01-17 23:30:00,
2013-01-17 16:33:00,62.1,23.4,30.19,WSW,243,0.0,5.1,22,0.00,,---,0.00,VWS V12.07,2013-01-17 23:33:00,
2013-01-17 16:38:00,61.5,23.4,30.19,East,84,5.5,7.5,23,0.00,,---,0.00,VWS V12.07,2013-01-17 23:38:00,
2013-01-17 16:43:00,61.4,23.6,30.19,ENE,75,0.0,7.5,23,0.00,,---,0.00,VWS V12.07,2013-01-17 23:43:00,
2013-01-17 16:48:00,61.2,23.6,30.20,NE,55,0.0,7.5,24,0.00,,---,0.00,VWS V12.07,2013-01-17 23:48:00,
2013-01-17 16:53:00,60.9,23.6,30.20,East,97,0.0,7.5,24,0.00,,---,0.00,VWS V12.07,2013-01-17 23:53:00,
2013-01-17 16:58:00,60.4,23.4,30.20,ENE,59,1.7,7.8,24,0.00,,---,0.00,VWS V12.07,2013-01-17 23:58:00,
2013-01-17 17:00:00,60.7,23.4,30.20,East,90,4.3,7.5,24,0.00,,---,0.00,VWS V12.07,2013-01-18 00:00:00,
2013-01-17 17:03:00,59.9,23.4,30.20,ENE,63,0.0,7.8,24,0.00,,---,0.00,VWS V12.07,2013-01-18 00:03:00,
2013-01-17 17:08:00,59.5,23.4,30.20,NNE,14,0.0,8.8,25,0.00,,---,0.00,VWS V12.07,2013-01-18 00:08:00,
2013-01-17 17:13:00,58.9,23.4,30.20,East,90,4.8,8.8,25,0.00,,---,0.00,VWS V12.07,2013-01-18 00:13:00,
2013-01-17 17:18:00,58.2,23.5,30.21,ENE,73,0.0,8.8,26,0.00,,---,0.00,VWS V12.07,2013-01-18 00:18:00,
2013-01-17 17:23:00,57.5,23.4,30.21,NE,37,1.3,8.8,26,0.00,,---,0.00,VWS V12.07,2013-01-18 00:23:00,
2013-01-17 17:28:00,56.9,23.4,30.21,NE,55,0.0,8.8,27,0.00,,---,0.00,VWS V12.07,2013-01-18 00:28:00,
2013-01-17 17:30:00,57.3,23.4,30.21,NE,37,0.0,8.8,27,0.00,,---,0.00,VWS V12.07,2013-01-18 00:30:00,
2013-01-17 17:33:00,56.5,23.5,30.21,NE,55,0.0,8.8,28,0.00,,---,0.00,VWS V12.07,2013-01-18 00:33:00,
2013-01-17 17:38:00,55.8,23.3,30.21,NE,56,0.0,8.8,28,0.00,,---,0.00,VWS V12.07,2013-01-18 00:38:00,
2013-01-17 17:44:00,55.4,23.4,30.22,NE,56,0.0,8.8,29,0.00,,---,0.00,VWS V12.07,2013-01-18 00:44:00,
2013-01-17 17:49:00,54.8,23.1,30.22,East,80,0.0,8.8,29,0.00,,---,0.00,VWS V12.07,2013-01-18 00:49:00,
2013-01-17 17:54:00,54.3,23.1,30.22,East,80,0.0,8.8,29,0.00,,---,0.00,VWS V12.07,2013-01-18 00:54:00,
2013-01-17 17:59:00,53.8,23.1,30.22,East,80,0.0,5.9,30,0.00,,---,0.00,VWS V12.07,2013-01-18 00:59:00,
2013-01-17 18:00:00,54.2,23.1,30.22,East,80,0.0,5.9,30,0.00,,---,0.00,VWS V12.07,2013-01-18 01:00:00,
2013-01-17 18:04:00,53.5,23.1,30.23,East,80,0.0,5.9,30,0.00,,---,0.00,VWS V12.07,2013-01-18 01:04:00,
2013-01-17 18:09:00,53.1,23.1,30.23,East,80,0.0,5.9,31,0.00,,---,0.00,VWS V12.07,2013-01-18 01:09:00,
2013-01-17 18:14:00,52.8,23.1,30.24,NE,34,0.0,5.9,31,0.00,,---,0.00,VWS V12.07,2013-01-18 01:14:00,
2013-01-17 18:19:00,52.3,22.9,30.24,NE,35,0.0,5.9,31,0.00,,---,0.00,VWS V12.07,2013-01-18 01:19:00,
2013-01-17 18:24:00,52.1,22.9,30.24,NE,35,0.0,5.9,32,0.00,,---,0.00,VWS V12.07,2013-01-18 01:24:00,
2013-01-17 18:29:00,51.7,23.0,30.24,NE,35,0.0,5.9,32,0.00,,---,0.00,VWS V12.07,2013-01-18 01:29:00,
2013-01-17 18:30:00,52.0,22.9,30.24,NE,35,0.0,4.3,32,0.00,,---,0.00,VWS V12.07,2013-01-18 01:30:00,
2013-01-17 18:34:00,51.2,22.9,30.25,NE,35,0.0,5.9,33,0.00,,---,0.00,VWS V12.07,2013-01-18 01:34:00,
2013-01-17 18:39:00,50.8,22.9,30.26,NE,35,0.0,5.9,33,0.00,,---,0.00,VWS V12.07,2013-01-18 01:39:00,
2013-01-17 18:44:00,50.4,23.1,30.26,NE,35,0.0,5.9,34,0.00,,---,0.00,VWS V12.07,2013-01-18 01:44:00,
2013-01-17 18:49:00,50.3,23.0,30.26,NE,35,0.0,5.9,34,0.00,,---,0.00,VWS V12.07,2013-01-18 01:49:00,
2013-01-17 18:54:00,50.1,22.8,30.26,NE,35,0.0,5.9,34,0.00,,---,0.00,VWS V12.07,2013-01-18 01:54:00,
2013-01-17 18:59:00,49.7,22.9,30.26,NE,35,0.0,0.0,35,0.00,,---,0.00,VWS V12.07,2013-01-18 01:59:00,
2013-01-17 19:00:00,49.9,22.7,30.26,NE,35,0.0,0.0,34,0.00,,---,0.00,VWS V12.07,2013-01-18 02:00:00,
2013-01-17 19:04:00,49.3,22.9,30.27,NE,35,0.0,0.0,35,0.00,,---,0.00,VWS V12.07,2013-01-18 02:04:00,
2013-01-17 19:09:00,48.8,22.7,30.27,NE,35,0.0,0.0,36,0.00,,---,0.00,VWS V12.07,2013-01-18 02:09:00,
2013-01-17 19:14:00,48.5,22.7,30.28,NE,35,0.0,0.0,36,0.00,,---,0.00,VWS V12.07,2013-01-18 02:14:00,
2013-01-17 19:19:00,48.0,22.5,30.28,NE,35,0.0,0.0,36,0.00,,---,0.00,VWS V12.07,2013-01-18 02:19:00,
2013-01-17 19:24:00,47.8,22.5,30.28,NE,35,0.0,0.0,36,0.00,,---,0.00,VWS V12.07,2013-01-18 02:24:00,
2013-01-17 19:29:00,47.5,22.5,30.29,NE,35,0.0,0.0,37,0.00,,---,0.00,VWS V12.07,2013-01-18 02:29:00,
2013-01-17 19:30:00,47.8,22.5,30.28,NE,35,0.0,0.0,37,0.00,,---,0.00,VWS V12.07,2013-01-18 02:30:00,
2013-01-17 19:34:00,47.2,22.6,30.29,NE,35,0.0,0.0,38,0.00,,---,0.00,VWS V12.07,2013-01-18 02:34:00,
2013-01-17 19:39:00,46.7,22.4,30.29,NE,35,0.0,0.0,38,0.00,,---,0.00,VWS V12.07,2013-01-18 02:39:00,
2013-01-17 19:44:00,46.3,22.4,30.29,NE,35,0.0,0.0,38,0.00,,---,0.00,VWS V12.07,2013-01-18 02:44:00,
2013-01-17 19:49:00,46.0,22.3,30.30,NE,35,0.0,0.0,39,0.00,,---,0.00,VWS V12.07,2013-01-18 02:49:00,
2013-01-17 19:54:00,45.8,22.3,30.30,WNW,284,0.0,4.3,39,0.00,,---,0.00,VWS V12.07,2013-01-18 02:54:00,
2013-01-17 19:59:00,45.4,22.2,30.31,WNW,284,0.0,4.3,40,0.00,,---,0.00,VWS V12.07,2013-01-18 02:59:00,
2013-01-17 20:00:00,45.6,22.1,30.30,WNW,284,0.0,4.3,39,0.00,,---,0.00,VWS V12.07,2013-01-18 03:00:00,
2013-01-17 20:04:00,45.0,22.1,30.31,WNW,290,3.4,5.4,40,0.00,,---,0.00,VWS V12.07,2013-01-18 03:04:00,
2013-01-17 20:09:00,44.7,22.0,30.31,West,277,0.0,5.4,40,0.00,,---,0.00,VWS V12.07,2013-01-18 03:09:00,
2013-01-17 20:14:00,44.5,21.9,30.31,West,277,0.0,5.4,40,0.00,,---,0.00,VWS V12.07,2013-01-18 03:14:00,
2013-01-17 20:19:00,44.3,21.9,30.31,West,277,0.0,5.4,41,0.00,,---,0.00,VWS V12.07,2013-01-18 03:19:00,
2013-01-17 20:24:00,44.0,21.9,30.31,West,263,2.5,6.1,41,0.00,,---,0.00,VWS V12.07,2013-01-18 03:24:00,
2013-01-17 20:29:00,44.0,22.0,30.31,WNW,285,3.2,6.2,41,0.00,,---,0.00,VWS V12.07,2013-01-18 03:29:00,
2013-01-17 20:30:00,44.0,22.0,30.31,WNW,288,5.8,6.2,41,0.00,,---,0.00,VWS V12.07,2013-01-18 03:30:00,
2013-01-17 20:34:00,43.6,21.8,30.31,WNW,285,0.0,6.2,42,0.00,,---,0.00,VWS V12.07,2013-01-18 03:34:00,
2013-01-17 20:39:00,43.5,21.8,30.31,WNW,285,0.0,6.2,42,0.00,,---,0.00,VWS V12.07,2013-01-18 03:39:00,
2013-01-17 20:44:00,43.3,21.8,30.31,WNW,285,0.0,6.2,42,0.00,,---,0.00,VWS V12.07,2013-01-18 03:44:00,
2013-01-17 20:49:00,43.0,21.7,30.31,WNW,285,0.0,6.2,42,0.00,,---,0.00,VWS V12.07,2013-01-18 03:49:00,
2013-01-17 20:54:00,42.8,21.6,30.31,WNW,285,0.0,6.2,43,0.00,,---,0.00,VWS V12.07,2013-01-18 03:54:00,
2013-01-17 20:59:00,42.7,21.6,30.32,WNW,285,0.0,5.8,43,0.00,,---,0.00,VWS V12.07,2013-01-18 03:59:00,
2013-01-17 21:00:00,42.8,21.6,30.31,WNW,285,0.0,5.8,43,0.00,,---,0.00,VWS V12.07,2013-01-18 04:00:00,
2013-01-17 21:04:00,42.5,21.6,30.32,WNW,285,0.0,5.8,43,0.00,,---,0.00,VWS V12.07,2013-01-18 04:04:00,
2013-01-17 21:09:00,42.4,21.6,30.32,WNW,285,0.0,5.8,43,0.00,,---,0.00,VWS V12.07,2013-01-18 04:09:00,
2013-01-17 21:14:00,42.3,21.6,30.32,WNW,285,0.0,5.8,43,0.00,,---,0.00,VWS V12.07,2013-01-18 04:14:00,
2013-01-17 21:19:00,42.2,21.5,30.32,WNW,285,0.0,5.8,43,0.00,,---,0.00,VWS V12.07,2013-01-18 04:19:00,
2013-01-17 21:24:00,42.1,21.5,30.32,WNW,285,0.0,5.8,44,0.00,,---,0.00,VWS V12.07,2013-01-18 04:24:00,
2013-01-17 21:29:00,42.0,21.5,30.32,WNW,285,0.0,5.8,44,0.00,,---,0.00,VWS V12.07,2013-01-18 04:29:00,
2013-01-17 21:30:00,42.1,21.6,30.32,WNW,285,0.0,0.0,44,0.00,,---,0.00,VWS V12.07,2013-01-18 04:30:00,
2013-01-17 21:34:00,42.0,21.6,30.32,West,270,0.0,5.8,44,0.00,,---,0.00,VWS V12.07,2013-01-18 04:34:00,
2013-01-17 21:39:00,41.7,21.5,30.32,West,270,0.0,5.8,44,0.00,,---,0.00,VWS V12.07,2013-01-18 04:39:00,
2013-01-17 21:44:00,41.6,21.4,30.32,West,270,0.0,5.8,44,0.00,,---,0.00,VWS V12.07,2013-01-18 04:44:00,
2013-01-17 21:49:00,41.6,21.4,30.32,West,270,0.0,5.8,44,0.00,,---,0.00,VWS V12.07,2013-01-18 04:49:00,
2013-01-17 21:54:00,41.5,21.3,30.32,West,270,0.0,5.8,44,0.00,,---,0.00,VWS V12.07,2013-01-18 04:54:00,
2013-01-17 21:59:00,41.4,21.2,30.32,West,270,0.0,5.0,44,0.00,,---,0.00,VWS V12.07,2013-01-18 04:59:00,
2013-01-17 22:00:00,41.6,21.4,30.32,West,270,0.0,5.0,44,0.00,,---,0.00,VWS V12.07,2013-01-18 05:00:00,
2013-01-17 22:01:00,41.6,21.4,30.32,West,270,0.0,5.0,44,0.00,,---,0.00,VWS V12.07,2013-01-18 05:01:00,
2013-01-17 22:03:00,41.4,21.2,30.32,West,270,0.0,5.0,44,0.00,,---,0.00,VWS V12.07,2013-01-18 05:03:00,
2013-01-17 22:08:00,41.4,21.5,30.32,West,270,0.0,5.0,45,0.00,,---,0.00,VWS V12.07,2013-01-18 05:08:00,
2013-01-17 22:13:00,41.4,21.5,30.32,West,270,0.0,5.0,45,0.00,,---,0.00,VWS V12.07,2013-01-18 05:13:00,
2013-01-17 22:18:00,41.4,21.5,30.32,West,270,0.0,5.0,45,0.00,,---,0.00,VWS V12.07,2013-01-18 05:18:00,
2013-01-17 22:23:00,41.6,21.6,30.32,West,277,0.0,5.9,45,0.00,,---,0.00,VWS V12.07,2013-01-18 05:23:00,
2013-01-17 22:28:00,41.8,21.6,30.32,West,277,0.0,5.9,44,0.00,,---,0.00,VWS V12.07,2013-01-18 05:28:00,
2013-01-17 22:30:00,41.7,21.5,30.32,West,277,0.0,5.9,44,0.00,,---,0.00,VWS V12.07,2013-01-18 05:30:00,
2013-01-17 22:33:00,41.8,21.6,30.32,West,277,0.0,5.9,44,0.00,,---,0.00,VWS V12.07,2013-01-18 05:33:00,
2013-01-17 22:38:00,41.6,21.5,30.32,West,277,0.0,5.9,44,0.00,,---,0.00,VWS V12.07,2013-01-18 05:38:00,
2013-01-17 22:43:00,41.3,21.3,30.32,West,277,0.0,5.9,44,0.00,,---,0.00,VWS V12.07,2013-01-18 05:43:00,
2013-01-17 22:48:00,41.0,21.2,30.31,West,277,0.0,5.9,45,0.00,,---,0.00,VWS V12.07,2013-01-18 05:48:00,
2013-01-17 22:53:00,40.8,21.2,30.31,West,277,0.0,5.9,45,0.00,,---,0.00,VWS V12.07,2013-01-18 05:53:00,
2013-01-17 22:58:00,40.6,21.0,30.31,West,277,0.0,0.0,45,0.00,,---,0.00,VWS V12.07,2013-01-18 05:58:00,
2013-01-17 23:00:00,40.7,21.1,30.31,West,277,0.0,0.0,45,0.00,,---,0.00,VWS V12.07,2013-01-18 06:00:00,
2013-01-17 23:03:00,40.5,21.0,30.31,West,277,0.0,0.0,45,0.00,,---,0.00,VWS V12.07,2013-01-18 06:03:00,
2013-01-17 23:08:00,40.6,21.1,30.31,West,277,0.0,0.0,45,0.00,,---,0.00,VWS V12.07,2013-01-18 06:08:00,
2013-01-17 23:13:00,40.6,21.1,30.31,West,277,0.0,0.0,45,0.00,,---,0.00,VWS V12.07,2013-01-18 06:13:00,
2013-01-17 23:18:00,40.6,21.2,30.31,West,277,0.0,0.0,46,0.00,,---,0.00,VWS V12.07,2013-01-18 06:18:00,
2013-01-17 23:23:00,40.4,21.2,30.31,West,277,0.0,0.0,46,0.00,,---,0.00,VWS V12.07,2013-01-18 06:23:00,
2013-01-17 23:28:00,40.4,21.2,30.30,West,277,0.0,0.0,46,0.00,,---,0.00,VWS V12.07,2013-01-18 06:28:00,
2013-01-17 23:30:00,40.4,21.2,30.31,West,277,0.0,0.0,46,0.00,,---,0.00,VWS V12.07,2013-01-18 06:30:00,
2013-01-17 23:33:00,40.4,21.2,30.30,West,277,0.0,0.0,46,0.00,,---,0.00,VWS V12.07,2013-01-18 06:33:00,
2013-01-17 23:38:00,40.4,21.2,30.30,West,277,0.0,0.0,46,0.00,,---,0.00,VWS V12.07,2013-01-18 06:38:00,
2013-01-17 23:44:00,40.2,21.2,30.30,West,277,0.0,0.0,46,0.00,,---,0.00,VWS V12.07,2013-01-18 06:44:00,
2013-01-17 23:49:00,40.0,21.1,30.30,West,277,0.0,0.0,46,0.00,,---,0.00,VWS V12.07,2013-01-18 06:49:00,
2013-01-17 23:54:00,40.1,21.2,30.30,West,277,0.0,0.0,46,0.00,,---,0.00,VWS V12.07,2013-01-18 06:54:00,
2013-01-17 23:59:00,39.9,21.2,30.30,West,277,0.0,0.0,47,0.00,,---,0.00,VWS V12.07,2013-01-18 06:59:00,